Location: Charlottesville
(38.0290°N, 78.4770°W)
Time: 08:35:04
(UTC-04:00)

Envisat - Pass Details

Date: 15 October 2017
Orbit: 764 x 766 km, 98.2° (Epoch: 20 October)

Event Time Altitude Azimuth Distance (km) Brightness Sun altitude
Exits shadow 19:43:02 14° 54° (NE) 2,023 4.7 -14.0°
Drops below altitude 10° 19:45:03 10° 31° (NNE) 2,307 5.2 -14.4°
Sets 19:48:21 0° 8° (N) 3,238 6.2 -15.0°
